Weather History for Du Bois, PA

Change the Weather History Date:

Tuesday, November 30, 2010

  Actual Average Record
Temperature  
Mean Temperature 46 °F 33 °F  
Max Temperature 55 °F 40 °F 64 °F (1991)
Min Temperature 37 °F 27 °F 2 °F (1976)
Degree Days  
Heating Degree Days 19 32  
Month to date heating degree days 776  
Since 1 July heating degree days 1517  
Cooling Degree Days 0 0  
Month to date cooling degree days 0  
Year to date cooling degree days 362  
Moisture  
Dew Point 45 °F    
Average Humidity 91    
Maximum Humidity 100    
Minimum Humidity 67    
Precipitation  
Precipitation 2.30 in 0.12 in 2.30 in (2010)
Month to date precipitation 3.68  
Sea Level Pressure  
Sea Level Pressure 29.94 in    
Wind  
Wind Speed 15 mph (SE)    
Max Wind Speed 20 mph    
Max Gust Speed 33 mph    
Visibility 5 miles    
Events Rain    
T = Trace of Precipitation, MM = Missing Value Source: NWS Daily Summary

Daily Weather History Graph

Daily Weather History Graph

Search for Another Location

Airport:

Trip Planner

Search our weather history database for the weather conditions in past years. The results will help you decide how hot, cold, wet, or windy it might be!

Date:

Astronomy

Nov. 30, 2010 Rise Set
Actual Time 7:20 AM EST 4:47 PM EST
Civil Twilight 6:49 AM EST 5:18 PM EST
Nautical Twilight 6:15 AM EST 5:52 PM EST
Astronomical Twilight 5:42 AM EST 6:25 PM EST
Moon 1:31 AM EST (11/30) 1:19 PM EST (11/30)
Length of Visible Light 10h 28m
Length of Day
9h 27m
Waning Crescent, 29% of the Moon is Illuminated
Nov 30
Waning Crescent
Dec 5
New
Dec 13
First Quarter
Dec 21
Full
Dec 27
Last Quarter

Hourly Weather History & Observations

Time (EST) Temp. Windchill Dew Point Humidity Pressure Visibility Wind Dir Wind Speed Gust Speed Precip Events Conditions
12:56 AM 37.0 °F 29.3 °F 28.9 °F 73% 30.22 in 10.0 mi SE 11.5 mph - N/A   Mostly Cloudy
1:56 AM 37.9 °F 30.5 °F 30.0 °F 73% 30.19 in 10.0 mi ESE 11.5 mph 19.6 mph N/A   Mostly Cloudy
2:56 AM 39.9 °F 32.1 °F 30.0 °F 68% 30.18 in 10.0 mi SE 13.8 mph 23.0 mph N/A   Overcast
3:56 AM 41.0 °F 33.5 °F 30.9 °F 67% 30.15 in 10.0 mi SE 13.8 mph 21.9 mph 0.00 in   Overcast
4:56 AM 42.1 °F 34.5 °F 33.1 °F 70% 30.13 in 10.0 mi SE 15.0 mph 25.3 mph 0.00 in Rain Light Rain
5:56 AM 41.0 °F 32.8 °F 37.0 °F 86% 30.09 in 10.0 mi SE 16.1 mph 28.8 mph 0.01 in Rain Light Rain
6:56 AM 42.1 °F 34.2 °F 39.0 °F 89% 30.11 in 10.0 mi SE 16.1 mph 26.5 mph 0.01 in Rain Light Rain
7:18 AM 42.8 °F 35.8 °F 39.2 °F 87% 30.07 in 7.0 mi SE 13.8 mph 25.3 mph 0.01 in Rain Light Rain
7:56 AM 42.1 °F 34.5 °F 39.9 °F 92% 30.10 in 4.0 mi SE 15.0 mph 24.2 mph 0.08 in Rain Rain
8:05 AM 42.8 °F 34.3 °F 41.0 °F 93% 30.05 in 3.0 mi SE 19.6 mph 29.9 mph 0.02 in Rain Rain
8:35 AM 42.8 °F 34.3 °F 42.8 °F 100% 30.04 in 2.5 mi SE 19.6 mph 28.8 mph 0.13 in Rain Rain
8:41 AM 44.6 °F 37.8 °F 42.8 °F 93% 30.04 in 2.0 mi SE 15.0 mph 28.8 mph 0.17 in Rain Heavy Rain
8:56 AM 44.1 °F 35.9 °F 42.1 °F 93% 30.06 in 2.0 mi SE 19.6 mph 27.6 mph 0.25 in Rain Heavy Rain
9:12 AM 44.6 °F 37.8 °F 42.8 °F 93% 30.05 in 2.5 mi SE 15.0 mph 23.0 mph 0.07 in Rain Rain
9:14 AM 44.6 °F 38.8 °F 42.8 °F 93% 30.05 in 2.5 mi SSE 11.5 mph 23.0 mph 0.08 in Rain Rain
9:22 AM 44.6 °F 38.1 °F 42.8 °F 93% 30.03 in 3.0 mi SE 13.8 mph 26.5 mph 0.11 in Rain Rain
9:31 AM 44.6 °F 37.4 °F 42.8 °F 93% 30.03 in 3.0 mi SE 16.1 mph 24.2 mph 0.14 in Rain Rain
9:56 AM 46.0 °F 39.6 °F 44.1 °F 93% 30.06 in 3.0 mi SE 15.0 mph 25.3 mph 0.22 in Rain Rain
10:03 AM 44.6 °F 37.2 °F 44.6 °F 100% 30.03 in 2.5 mi SE 17.3 mph 25.3 mph 0.01 in Rain Light Rain
10:17 AM 46.4 °F 39.5 °F 44.6 °F 93% 30.03 in 4.0 mi SE 17.3 mph 28.8 mph 0.02 in Rain Light Rain
10:32 AM 46.4 °F 40.4 °F 44.6 °F 93% 30.02 in 7.0 mi SE 13.8 mph 27.6 mph 0.03 in Rain Light Rain
10:56 AM 46.9 °F - 44.1 °F 90% 30.04 in 10.0 mi SSE 12.7 mph 25.3 mph 0.05 in Rain Light Rain
11:18 AM 46.4 °F 40.7 °F 44.6 °F 93% 30.00 in 5.0 mi SSE 12.7 mph 25.3 mph 0.04 in Rain Light Rain
11:56 AM 46.9 °F - 45.0 °F 93% 29.99 in 7.0 mi SE 16.1 mph 26.5 mph 0.08 in Rain Light Rain
12:18 PM 48.2 °F - 44.6 °F 87% 29.96 in 4.0 mi SE 17.3 mph 27.6 mph 0.04 in Rain Light Rain
12:56 PM 48.0 °F - 46.0 °F 93% 29.96 in 4.0 mi SE 17.3 mph 27.6 mph 0.08 in Rain Light Rain
1:16 PM 48.2 °F - 46.4 °F 93% 29.93 in 3.0 mi SSE 15.0 mph 29.9 mph 0.03 in Rain Light Rain
1:19 PM 48.2 °F - 46.4 °F 93% 29.92 in 2.5 mi SE 12.7 mph 26.5 mph 0.04 in Rain Light Rain
1:34 PM 48.2 °F - 46.4 °F 93% 29.92 in 2.5 mi SE 15.0 mph 33.4 mph 0.07 in Rain Rain
1:44 PM 48.2 °F - 46.4 °F 93% 29.91 in 3.0 mi SE 15.0 mph 28.8 mph 0.09 in Rain Rain
1:56 PM 48.9 °F - 46.9 °F 93% 29.93 in 2.5 mi SE 16.1 mph 31.1 mph 0.13 in Rain Rain
2:00 PM 48.2 °F - 46.4 °F 93% 29.90 in 3.0 mi SE 18.4 mph 29.9 mph 0.01 in Rain Rain
2:29 PM 48.2 °F - 46.4 °F 93% 29.89 in 4.0 mi SE 17.3 mph 31.1 mph 0.10 in Rain Rain
2:34 PM 48.2 °F - 46.4 °F 93% 29.89 in 3.0 mi SE 16.1 mph 31.1 mph 0.12 in Rain Rain
2:56 PM 48.9 °F - 46.9 °F 93% 29.91 in 2.5 mi SE 15.0 mph 29.9 mph 0.20 in Rain Rain
3:03 PM 48.2 °F - 46.4 °F 93% 29.89 in 3.0 mi SE 16.1 mph 25.3 mph 0.03 in Rain Rain
3:29 PM 48.2 °F - 46.4 °F 93% 29.87 in 2.5 mi SE 17.3 mph 29.9 mph 0.10 in Rain Rain
3:33 PM 48.2 °F - 46.4 °F 93% 29.87 in 3.0 mi SE 16.1 mph 27.6 mph 0.11 in Rain Rain
3:56 PM 50.0 °F - 48.0 °F 93% 29.88 in 5.0 mi SE 19.6 mph 32.2 mph 0.15 in Rain Rain
4:13 PM 50.0 °F - 48.2 °F 94% 29.85 in 5.0 mi SE 15.0 mph 28.8 mph 0.03 in Rain Light Rain
4:20 PM 50.0 °F - 48.2 °F 94% 29.85 in 7.0 mi SE 19.6 mph 29.9 mph 0.04 in Rain Light Rain
4:56 PM 51.1 °F - 48.0 °F 89% 29.86 in 10.0 mi SE 17.3 mph 28.8 mph 0.07 in Rain Light Rain
5:05 PM 51.8 °F - 48.2 °F 88% 29.85 in 10.0 mi SE 16.1 mph 31.1 mph 0.00 in Rain Light Rain
5:56 PM 51.1 °F - 50.0 °F 96% 29.85 in 7.0 mi SE 16.1 mph 27.6 mph 0.09 in Rain Light Rain
6:50 PM 51.8 °F - 50.0 °F 94% 29.81 in 5.0 mi SE 18.4 mph 31.1 mph 0.12 in Rain Rain
6:56 PM 52.0 °F - 50.0 °F 93% 29.82 in 6.0 mi SSE 16.1 mph 31.1 mph 0.13 in Rain Rain
7:56 PM 53.1 °F - 51.1 °F 93% 29.77 in 10.0 mi SE 18.4 mph 28.8 mph 0.08 in Rain Light Rain
8:56 PM 54.0 °F - 52.0 °F 93% 29.76 in 3.0 mi South 11.5 mph 27.6 mph 0.14 in Rain Heavy Rain
9:33 PM 53.6 °F - 53.6 °F 100% 29.74 in 4.0 mi SSE 11.5 mph 17.3 mph 0.14 in Rain Rain
9:56 PM 54.0 °F - 53.1 °F 97% 29.73 in 9.0 mi SSE 12.7 mph 17.3 mph 0.19 in Rain Light Rain
10:56 PM 55.0 °F - 54.0 °F 96% 29.70 in 5.0 mi SSE 9.2 mph 21.9 mph 0.18 in Rain Rain
11:20 PM 55.4 °F - 53.6 °F 94% 29.68 in 5.0 mi SSE 12.7 mph 23.0 mph 0.07 in Rain Rain
11:35 PM 55.4 °F - 53.6 °F 94% 29.67 in 5.0 mi SE 11.5 mph 20.7 mph 0.12 in Rain Rain
11:40 PM 55.4 °F - 53.6 °F 94% 29.66 in 5.0 mi SE 15.0 mph 25.3 mph 0.14 in Rain Rain
11:56 PM 55.9 °F - 54.0 °F 93% 29.65 in 8.0 mi SE 13.8 mph 25.3 mph 0.16 in Rain Light Rain